Regional Weather Roundup
Issued by NWS Wakefield, VA

Home | Current Version | Previous Version | Graphics & Text | Print | Product List | Glossary On
Versions: 1 2 3 4 5 6 7 8 9 10 11 12 13 14 15 16 17 18 19 20 21 22 23 24 25 26 27
000
ASUS41 KAKQ 021815
RWRAKQ

REGIONAL WEATHER ROUNDUP
NATIONAL WEATHER SERVICE WAKEFIELD VA
100 PM EST FRI DEC 02 2016

Note: "fair" indicates few or no clouds below 12,000 feet with no
significant weather and/or obstructions to visibility. * = Denotes
station may not report precipitation (e.g., rain,snow,etc.),
thunder or fog.

VAZ042-051-052>054-056-021900-
NORTHERN VIRGINIA

CITY           SKY/WX    TMP DP  RH WIND       PRES   REMARKS
WASH NATIONAL  MOSUNNY   54  30  40 NW15G21   30.03F
DULLES         MOSUNNY   51  28  41 NW18      30.04F
FORT BELVOIR   SUNNY     53  28  38 W12       30.02F
QUANTICO       MOSUNNY   54  29  38 NW10      30.05F
FREDERICKSBRG* SUNNY     53  33  46 W14       30.03F
STAFFORD*      SUNNY     52  30  43 W12       30.08S
WARRENTON      SUNNY     55  22  27 W12       30.03S
CULPEPER*      MOSUNNY   54  31  41 W7        30.04F
MANASSAS*      SUNNY     54  28  37 NW9G17    30.03F
LEESBURG*      CLOUDY    48  32  53 NW15      30.05S
WINCHESTER     CLOUDY    45  28  53 W14G22    30.04F
FRONT ROYAL*   CLOUDY    46  30  53 W6        30.03S
LURAY*         MOCLDY    50  32  50 W10G18    30.03F
$$

VAZ048-049-060>072-079>083-021900-
CENTRAL AND SOUTH CENTRAL VIRGINIA

CITY           SKY/WX    TMP DP  RH WIND       PRES   REMARKS
RICHMOND       MOSUNNY   54  29  38 W12       30.05F
CHESTERFIELD*  FAIR      55  25  30 W7        30.07F
PETERSBURG*    SUNNY     54  28  36 W9        30.06F
HANOVER        SUNNY     53  29  39 W14G20    30.06F
TAPPAHANNOCK*  SUNNY     53  25  33 W9G16     30.04F
QUINTON*       FAIR      53  30  42 W8G16     30.04F
CHARLOTTSVILLE CLOUDY    52  29  41 SW6       30.04F
GORDONSVILLE*  FAIR      53  31  41 W7        30.03F
ORANGE*          N/A     54  30  40 SW8       30.05F
LOUISA*        SUNNY     55  34  44 W5        30.03F
BUMPASS*       FAIR      52  30  43 W5        30.04F
FARMVILLE*     SUNNY     54  32  43 SW9G16    30.06S
CREWE*         FAIR      53  31  44 W6G17     30.07S
FORT PICKETT*  FAIR      54  22  28 SW9G17    30.06F
CHASE CITY*    FAIR      52  27  39 W10G17    30.08F
CLARKSVILLE*   FAIR      52  30  43 NW8       30.09F
SOUTH HILL*    SUNNY     52  32  47 SW6G16    30.14S
LAWRENCEVILLE* FAIR      53  30  40 SW10      30.07F
EMPORIA*       SUNNY     54  30  40 S8        30.09F
$$

VAZ088>098-021900-
SOUTHEAST VIRGINIA

CITY           SKY/WX    TMP DP  RH WIND       PRES   REMARKS
NORFOLK        SUNNY     53  29  39 W9        30.05F
VIRGINIA BEACH SUNNY     54  28  36 SW8       30.04F
NORFOLK NAVAL  SUNNY     53  29  39 W12       30.06F
WEST POINT*    SUNNY     55  29  37 W8        30.06F
SALUDA*        FAIR      53  32  44 W7        30.04F
NEWPORT NEWS   SUNNY     53  30  41 W15       30.05F
LANGLEY AFB    SUNNY     54  31  40 SW13G20   30.04F
FORT EUSTIS    SUNNY     56  31  38 W6        30.02F
WILLIAMSBURG*  SUNNY     55  32  41 W10G18    30.06F
HR EXEC AP*    FAIR      54  30  40 W9        30.05F
FRANKLIN*      SUNNY     53  30  40 W7G16     30.07F
US460-WAKEFLD  SUNNY     54  31  41 VRB6      30.06F
$$

VAZ020-022-025-037-045-021900-
WEST CENTRAL AND SOUTHWEST VIRGINIA

CITY           SKY/WX    TMP DP  RH WIND       PRES   REMARKS
STAUNTON*      CLOUDY    46  29  52 W3        30.06S
WAYNESBORO*    CLOUDY    47  27  46 W5G16     30.04S
HOT SPRINGS VA CLOUDY    36  28  75 W21G29    29.98F WCI  24
LYNCHBURG      SUNNY     51  28  41 VRB7G17   30.08F
DANVILLE       SUNNY     52  31  44 SW10G20   30.10F
SOUTH BOSTON*  FAIR      54  28  36 W10G16    30.09F
MARTINSVILLE   SUNNY     53  28  38 CALM      30.11F
ROANOKE        MOSUNNY   49  28  44 W9G18     30.10F
BLACKSBURG     MOSUNNY   44  29  56 W10G17    30.12F
DUBLIN*        SUNNY     45  30  55 W18       30.11F
MARION*        SUNNY     43  29  56 W22G31    30.12S
HILLSVILLE*    PTSUNNY   42  30  60 W10G20    30.08S
RICHLANDS*     FAIR      42  31  65 W10G17    30.14S
WISE*          SUNNY     45  27  49 W8        30.17R
ABINGDON*      SUNNY     46  31  55 W10       30.17S
$$

MDZ021>025-VAZ099-100-021900-
SOUTHERN MARYLAND AND THE DELMARVA PENINSULA

CITY           SKY/WX    TMP DP  RH WIND       PRES   REMARKS
PATUXENT RIVER MOSUNNY   52  29  41 W10       30.02F
BAY BRIDGE APT SUNNY     50  30  46 W14       30.02F
LEONARDTOWN    SUNNY     50  30  46 W9G18     30.03F
DOVER          SUNNY     51  32  47 W17       29.96F
GEORGETOWN     SUNNY     52  27  38 W14G22    29.99F
EASTON         SUNNY     52  27  37 W15       30.05F
CAMBRIDGE      SUNNY     50  30  46 NW13G18   30.01F
SALISBURY      MOSUNNY   51  28  41 NW13      30.00F
OCEAN CITY     SUNNY     52  28  39 NW10G20   30.00F
WALLOPS ISLAND MOSUNNY   51  32  48 W14G23    30.02F
ACCOMACK*      SUNNY     51  32  47 W14G21    30.04F
$$

NCZ012>017-030>032-021900-
NORTH CENTRAL AND EASTERN NORTH CAROLINA

CITY           SKY/WX    TMP DP  RH WIND       PRES   REMARKS
ROANOKE RAPIDS FAIR      54  32  43 SW8       30.09F
RALEIGH        MOSUNNY   57  28  33 W8        30.10F
ELIZABETH CITY SUNNY     54  32  43 W9        30.07F
AHOSKIE*       SUNNY     53  31  43 SW3       30.08F
EDENTON*       SUNNY     56  32  41 CALM      30.09F
CURRITUCK*     SUNNY     54  31  41 W8        30.07F
KILL DEVIL HLS SUNNY     53  37  55 CALM      30.06F
MANTEO         SUNNY     52  32  47 NW7       30.08F
CAPE HATTERAS  SUNNY     56  41  57 VRB5      30.07F
TARBORO*       NOT AVBL
GOLDSBORO      SUNNY     56  29  34 NW9       30.08F
WASHINGTON     SUNNY     57  32  38 W6        30.10F
GREENVILLE     SUNNY     54  32  43 W7        30.11F
NEW BERN       SUNNY     56  33  42 NW7       30.10F
WILMINGTON     SUNNY     58  33  39 N13       30.10F
$$

VAZ048-021900-
ELSEWHERE

CITY           SKY/WX    TMP DP  RH WIND       PRES   REMARKS
HARRISBURG PA  SUNNY     47  29  49 NW18G30   29.98F
BALTIMORE      MOSUNNY   49  28  44 NW21G29   30.01F
ANNAPOLIS      SUNNY     52  28  39 W15G24    30.01F
ANDREWS AFB    SUNNY     51  28  41 NW13      30.00F
PHILADELPHIA   PTSUNNY   51  28  41 W16       29.95F
HENDERSON NC   SUNNY     51  27  39 W9        30.10F
GREENSBORO     MOSUNNY   53  29  39 W13G25    30.11F
ROCKY MOUNT    SUNNY     55  31  39 NW8G16    30.10F
$$

VAZ100-021900-
MARINE

STATION/POSITION TIME  TEMP    WIND        PRES    WAVE   SWELL
                       AIR SEA DIR/SP/G            HT/PER HT/PER
                 (UTC) (F)     (DEG/KT/KT) (MB)    (FT/S) (FT/S)
BRANDYWINE LGT   1748   48     320/ 14/ 19   N/A
CAPE MAY NJ      1748   49 50  300/ 17/ 21 1014.5F
LEWES DE         1748   49 51  300/ 19/ 23 1015.1F
OCEAN-CITY-INLET 1742   50 52  310/ 13/ 18 1016.0F
WACHAPREAGUE VA  1748   51 54  270/  5/ 14 1017.0F
THOMAS POINT MD  1800   49 51  300/ 19/ 22   N/A
GOOSES REEF MD   1800   51 51  310/ 12/ 16 1017.0    2/ 3
COVE POINT MD    1748   49     300/ 12/ 15 1017.1F
SOLOMONS ISLAND  1742   51 52  260/  9/ 14   N/A
BISHOPS HEAD MD  1748   49 50  280/ 12/ 15 1017.1F
PINEY POINT MD   1748          330/ 14/ 16   N/A
POTOMAC MD       1800   50 52  290/ 10/ 14 1015.9    1/ 2
CAMBRIDGE MD     1748   49 49  310/ 11/ 16 1015.6F
LEWISETTA VA     1748   51 52  290/  9/ 14 1016.6F
RAPPAHANNOCK LGT 1748          250/  8/  9 1017.7F
STINGRAY PT      1800   50     310/ 10/ 14 1017.3    1/ 2
YORK RVR RNG VA  1748   51     270/ 11/ 13 1016.8F
YORKTOWN VA      1748   51 53  230/ 12/ 16 1016.9F
JAMESTOWN VA     1800   52 55  290/ 12/ 14   N/A     0
DOMINION TERM VA 1748   51     270/  6/  9 1017.5F
KIPTOPEKE VA     1742      54  250/  8/  9   N/A
CHES BAY BRIDGE  1748   50 54  280/ 12/ 15 1017.5F
CAPE HENRY VA    1748   51     280/ 10/ 14   N/A
WILLOUBY STN VA  1748   50     280/  8/  9 1018.4F
S CRANEY ISL VA  1748   52     280/  6/ 10 1017.6F
CAPE HENRY BUOY  1742      56                N/A     2/ 5
1ST LANDING BUOY 1800   50 54              1017.7    1/ 3
CAPE CHARLES BUO 1756      57                N/A     2/ 8
OFFSHORE WE BUOY 1751      57                N/A     3/ 6
64NM E OF VA BCH 1750   51 60  310/ 12/ 16 1017.3F   4/ 5   2/ 6
DUCK PIER NC     1748   51 57  320/  4/  6 1017.6F
44100 DUCK FRF   1735      57                N/A     4/ 6
OREGON INLET NC  1742   52 58  310/  6/ 10 1018.3F
HATTERAS NC      1748   52 62  320/ 12/ 13 1018.0F
DIAMOND SHLS NC  1750   56 77  350/ 12/ 16 1018.0F   4/ 7   3/ 7
CAPE LOOKOUT NC  1700   54     350/  6/  7 1018.8F
$$




USA.gov is the U.S. government's official web portal to all federal, state and local government web resources and services.